Location: Castiglione Fibocchi
(43.5333°N, 11.7667°E)
Time: 12:26:18
(UTC+00:00)

Cosmos 2237 Rocket - Pass Details

Date: 15 August 2020
Orbit: 836 x 848 km, 71.0° (Epoch: 24 September)

Event Time Altitude Azimuth Distance (km) Brightness Sun altitude
Rises 00:36:42 0° 319° (NW) 3,402 5.7 -29.7°
Reaches altitude 10° 00:40:01 10° 299° (WNW) 2,459 4.7 -29.5°
Enters shadow 00:40:38 12° 294° (WNW) 2,326 4.5 -29.4°
